Weather History for La Paz, Mexico

Change the Weather History Date:

Thursday, March 21, 2013

  Actual Average Record
Temperature  
Mean Temperature 79 °F -  
Max Temperature 97 °F 84 °F 97 °F (2013)
Min Temperature 60 °F 56 °F 33 °F (2003)
Cooling Degree Days 14    
Growing Degree Days 29 (Base 50)    
Moisture  
Dew Point 47 °F    
Average Humidity 46    
Maximum Humidity 88    
Minimum Humidity 11    
Precipitation  
Precipitation 0.00 in - - ()
Sea Level Pressure  
Sea Level Pressure 29.85 in    
Wind  
Wind Speed 8 mph ()    
Max Wind Speed 16 mph    
Max Gust Speed -    
Visibility 10.6 miles    
Events      
Averages and records for this station are not official NWS values.
T = Trace of Precipitation, MM = Missing Value Source: Averaged Metar Reports

Daily Weather History Graph

Daily Weather History Graph

Search for Another Location

Airport:

Trip Planner

Search our weather history database for the weather conditions in past years. The results will help you decide how hot, cold, wet, or windy it might be!

Date:

Astronomy

Mar. 21, 2013 Rise Set
Actual Time 6:24 AM MST 6:33 PM MST
Civil Twilight 6:01 AM MST 6:55 PM MST
Nautical Twilight 5:35 AM MST 7:22 PM MST
Astronomical Twilight 5:08 AM MST 7:48 PM MST
Moon 1:36 PM MST (3/21) 2:16 AM MST (3/21)
Length of Visible Light 12h 54m
Length of Day
12h 09m
Waxing Gibbous, 69% of the Moon is Illuminated
Mar 21
Waxing Gibbous
Mar 27
Full
Apr 2
Last Quarter
Apr 10
New
Apr 18
First Quarter

Hourly Weather History & Observations

Time (MST) Temp. Dew Point Humidity Pressure Visibility Wind Dir Wind Speed Gust Speed Precip Events Conditions
1:50 AM 64 °F 56 °F 70% 29.87 in 2 mi South 8.9 mph - -  
4:50 AM 62 °F 57 °F 79% 29.83 in 2 mi South 6.7 mph - -  
6:03 AM 55.4 °F 51.8 °F 88% 29.85 in 10.0 mi South 6.9 mph - N/A   Clear
6:50 AM 57.2 °F 53.6 °F 88% 29.85 in 10.0 mi South 10.4 mph - N/A   Clear
7:45 AM 64.4 °F 53.6 °F 68% 29.91 in 10.0 mi South 9.2 mph - N/A   Clear
7:50 AM 73 °F 46 °F 28% 29.86 in 16 mi SSE 6.7 mph - -  
8:41 AM 73.4 °F 50.0 °F 44% 29.86 in 10.0 mi South 11.5 mph - N/A   Clear
9:46 AM 82.4 °F 42.8 °F 25% 29.86 in 12.0 mi South 8.1 mph - N/A   Clear
10:43 AM 87.8 °F 37.4 °F 17% 29.89 in 12.0 mi South 8.1 mph - N/A   Clear
10:50 AM 91 °F 48 °F 14% 29.83 in 19 mi South 6.7 mph - -  
11:40 AM 89.6 °F 28.4 °F 11% 29.83 in 12.0 mi SSE 4.6 mph - N/A   Clear
12:43 PM 93.2 °F 32.0 °F 11% 29.80 in 12.0 mi SW 6.9 mph - N/A   Clear
1:40 PM 91.4 °F 30.2 °F 11% 29.84 in 12.0 mi SW 16.1 mph - N/A   Clear
2:44 PM 87.8 °F 35.6 °F 16% 29.78 in 12.0 mi WSW 13.8 mph - N/A   Partly Cloudy
3:40 PM 86.0 °F 41.0 °F 20% 29.79 in 12.0 mi WSW 12.7 mph - N/A   Scattered Clouds
4:44 PM 86.0 °F 41.0 °F 20% 29.82 in 12.0 mi SSW 10.4 mph - N/A   Scattered Clouds
5:45 PM 80.6 °F 41.0 °F 24% 29.79 in 12.0 mi SW 8.1 mph - N/A   Mostly Cloudy
6:41 PM 77.0 °F 42.8 °F 29% 29.81 in 12.0 mi SSW 8.1 mph - N/A   Mostly Cloudy
7:40 PM 69.8 °F 55.4 °F 60% 29.89 in 12.0 mi South 8.1 mph - N/A   Scattered Clouds
8:40 PM 68.0 °F 55.4 °F 64% 29.86 in 12.0 mi SSW 8.1 mph - N/A   Scattered Clouds
9:51 PM 66.2 °F 57.2 °F 73% 29.87 in 10.0 mi South 16.1 mph - N/A   Scattered Clouds
10:44 PM 64.4 °F 57.2 °F 77% 29.92 in 10.0 mi South 10.4 mph - N/A   Scattered Clouds
10:50 PM 67 °F 59 °F 68% 29.86 in 2 mi SSE 8.9 mph - -   Scattered Clouds
11:50 PM 60.8 °F 57.2 °F 88% 29.85 in 10.0 mi South 10.4 mph - N/A   Partly Cloudy